Location: Recife
(8.0585°S, 34.8848°W)
Time: 12:52:49
(UTC-03:00)

Vanguard 2 - Pass Details

Date: 15 April 2026
Orbit: 553 x 2895 km, 32.9° (Epoch: 13 May)

Event Time Altitude Azimuth Distance (km) Brightness Sun altitude
Exits shadow 01:54:11 25° 170° (S) 4,059 11.1 -51.8°
Drops below altitude 10° 02:02:40 10° 130° (SE) 4,554 11.7 -49.7°
Sets 02:06:45 0° 116° (ESE) 5,190 12.3 -48.7°
